Cheyenne, WY

2:22 AM MDT on September 29, 2016 (GMT -0600)
Cheyenne

Weather History for KCYS - December, 2013

Change the Weather History Date:

Monday, December 16, 2013

  Actual Average Record
Temperature  
Mean Temperature 46 °F 27 °F  
Max Temperature 52 °F 38 °F 66 °F (1962)
Min Temperature 39 °F 17 °F -15 °F (1964)
Degree Days  
Heating Degree Days 19 38  
Month to date heating degree days 703 596  
Since 1 July heating degree days 2407 2344  
Cooling Degree Days 0 0  
Month to date cooling degree days 0 0  
Year to date cooling degree days 520 348  
Moisture  
Dew Point 15 °F    
Average Humidity 31    
Maximum Humidity 41    
Minimum Humidity 21    
Precipitation  
Precipitation 0.00 in 0.01 in 0.51 in (1908)
Month to date precipitation 0.37 0.27  
Year to date precipitation 18.05 15.72  
Snow  
Snow 0.00 in 0.30 in 4.50 in (1908)
Month to date snowfall 8.0 4.6  
Since 1 July snowfall 23.6 18.9  
Snow Depth T in    
Sea Level Pressure  
Sea Level Pressure 30.10 in    
Wind  
Wind Speed 22 mph (WNW)    
Max Wind Speed 39 mph    
Max Gust Speed 47 mph    
Visibility 10 miles    
Events      
T = Trace of Precipitation, MM = Missing Value Source: NWS Daily Summary

Daily Weather History Graph

Daily Weather History Graph

Search for Another Location

Airport or City:

Trip Planner

Search our weather history database for the weather conditions in past years. The results will help you decide how hot, cold, wet, or windy it might be!

Date:

Astronomy

Dec. 16, 2013 Rise Set
Actual Time 7:18 AM MST 4:31 PM MST
Civil Twilight 6:47 AM MST 5:02 PM MST
Nautical Twilight 6:12 AM MST 5:37 PM MST
Astronomical Twilight 5:38 AM MST 6:11 PM MST
Moon 4:24 PM MST (12/16) 6:28 AM MST (12/16)
Length of Visible Light 10h 15m
Length of Day
9h 13m
Full, 100% of the Moon is Illuminated
Dec 16
Full
Dec 17
Full
Dec 25
Last Quarter
Jan 1
New
Jan 7
First Quarter

Hourly Weather History & Observations

Time (MST) Temp. Windchill Dew Point Humidity Pressure Visibility Wind Dir Wind Speed Gust Speed Precip Events Conditions
12:53 AM 41.0 °F 30.7 °F 15.1 °F 35% 30.04 in 10.0 mi WNW 25.3 mph 36.8 mph N/A   Clear
1:53 AM 39.9 °F 28.6 °F 15.1 °F 36% 30.05 in 10.0 mi West 28.8 mph 36.8 mph N/A   Clear
2:53 AM 42.1 °F 31.5 °F 14.0 °F 32% 30.05 in 10.0 mi West 28.8 mph 46.0 mph N/A   Clear
3:53 AM 41.0 °F 31.6 °F 15.1 °F 35% 30.06 in 10.0 mi WNW 20.7 mph 31.1 mph N/A   Clear
4:53 AM 41.0 °F 29.8 °F 17.1 °F 38% 30.06 in 10.0 mi West 29.9 mph 38.0 mph N/A   Clear
5:53 AM 41.0 °F 29.8 °F 19.0 °F 41% 30.07 in 10.0 mi West 29.9 mph 35.7 mph N/A   Clear
6:53 AM 41.0 °F 30.7 °F 19.0 °F 41% 30.06 in 10.0 mi WNW 25.3 mph 34.5 mph N/A   Clear
7:53 AM 42.1 °F 34.2 °F 19.0 °F 40% 30.09 in 10.0 mi WNW 16.1 mph 24.2 mph N/A   Clear
8:53 AM 45.0 °F 36.0 °F 18.0 °F 34% 30.09 in 10.0 mi WNW 25.3 mph 36.8 mph N/A   Clear
9:53 AM 46.9 °F - 17.1 °F 30% 30.09 in 10.0 mi West 28.8 mph 35.7 mph N/A   Clear
10:53 AM 48.9 °F - 14.0 °F 25% 30.07 in 10.0 mi WNW 33.4 mph 43.7 mph N/A   Clear
11:53 AM 50.0 °F - 14.0 °F 24% 30.05 in 10.0 mi NW 23.0 mph 35.7 mph N/A   Clear
12:53 PM 52.0 °F - 15.1 °F 23% 30.02 in 10.0 mi WNW 21.9 mph 29.9 mph N/A   Clear
1:53 PM 52.0 °F - 14.0 °F 22% 30.05 in 10.0 mi WNW 17.3 mph 32.2 mph N/A   Clear
2:53 PM 51.1 °F - 12.9 °F 22% 30.06 in 10.0 mi WNW 23.0 mph 31.1 mph N/A   Clear
3:53 PM 48.9 °F - 14.0 °F 25% 30.09 in 10.0 mi WNW 20.7 mph 28.8 mph N/A   Clear
4:53 PM 46.0 °F 38.0 °F 12.9 °F 26% 30.12 in 10.0 mi WNW 21.9 mph 31.1 mph N/A   Clear
5:53 PM 45.0 °F 36.6 °F 12.0 °F 26% 30.15 in 10.0 mi NW 21.9 mph 31.1 mph N/A   Clear
6:53 PM 43.0 °F 34.8 °F 12.9 °F 30% 30.17 in 10.0 mi NW 18.4 mph 28.8 mph N/A   Clear
7:53 PM 42.1 °F 33.6 °F 12.0 °F 29% 30.17 in 10.0 mi NW 18.4 mph 29.9 mph N/A   Clear
8:53 PM 39.9 °F 35.1 °F 12.0 °F 32% 30.17 in 10.0 mi NNW 6.9 mph - N/A   Clear
9:53 PM 41.0 °F 37.1 °F 12.0 °F 31% 30.17 in 10.0 mi NW 5.8 mph - N/A   Clear
10:53 PM 41.0 °F 32.8 °F 12.0 °F 31% 30.16 in 10.0 mi WNW 16.1 mph 24.2 mph N/A   Clear
11:53 PM 39.0 °F 30.3 °F 12.0 °F 33% 30.16 in 10.0 mi WNW 16.1 mph - N/A   Clear